Weather History for Crookston, MN

Change the Weather History Date:

Saturday, August 24, 2013

  Actual Average Record
Temperature  
Mean Temperature 83 °F -  
Max Temperature 93 °F 76 °F 93 °F (1996)
Min Temperature 73 °F 52 °F 33 °F (2006)
Cooling Degree Days 18    
Growing Degree Days 33 (Base 50)    
Moisture  
Dew Point 70 °F    
Average Humidity 68    
Maximum Humidity 88    
Minimum Humidity 46    
Precipitation  
Precipitation 0.00 in - - ()
Sea Level Pressure  
Sea Level Pressure 29.80 in    
Wind  
Wind Speed 13 mph (South)    
Max Wind Speed 23 mph    
Max Gust Speed 30 mph    
Visibility 10 miles    
Events Thunderstorm    
Averages and records for this station are not official NWS values.
T = Trace of Precipitation, MM = Missing Value Source: NWS Daily Summary

Daily Weather History Graph

Daily Weather History Graph

Search for Another Location

Airport:

Trip Planner

Search our weather history database for the weather conditions in past years. The results will help you decide how hot, cold, wet, or windy it might be!

Date:

Astronomy

Aug. 24, 2013 Rise Set
Actual Time 6:34 AM CDT 8:22 PM CDT
Civil Twilight 6:01 AM CDT 8:55 PM CDT
Nautical Twilight 5:20 AM CDT 9:35 PM CDT
Astronomical Twilight 4:36 AM CDT 10:19 PM CDT
Moon 9:53 PM CDT (8/24) 10:57 AM CDT (8/24)
Length of Visible Light 14h 53m
Length of Day
13h 48m
Waning Gibbous, 84% of the Moon is Illuminated
Aug 24
Waning Gibbous
Aug 28
Last Quarter
Sep 5
New
Sep 12
First Quarter
Sep 19
Full

Hourly Weather History & Observations

Time (CDT) Temp. Heat Index Dew Point Humidity Pressure Visibility Wind Dir Wind Speed Gust Speed Precip Events Conditions
12:15 AM 73.4 °F - 64.4 °F 73% 29.90 in 10.0 mi SSE 10.4 mph - N/A   Clear
12:34 AM 73.4 °F - 64.4 °F 73% 29.90 in 10.0 mi SSE 11.5 mph - N/A   Clear
12:54 AM 73.4 °F - 66.2 °F 78% 29.90 in 10.0 mi South 11.5 mph - N/A   Clear
1:14 AM 73.4 °F - 66.2 °F 78% 29.90 in 10.0 mi South 13.8 mph - N/A   Clear
1:34 AM 73.4 °F - 66.2 °F 78% 29.91 in 10.0 mi South 12.7 mph - N/A   Clear
1:55 AM 73.4 °F - 66.2 °F 78% 29.90 in 10.0 mi SSE 11.5 mph - N/A   Clear
2:14 AM 73.4 °F - 66.2 °F 78% 29.89 in 10.0 mi SSE 11.5 mph - N/A   Clear
2:34 AM 73.4 °F - 66.2 °F 78% 29.89 in 10.0 mi SSE 9.2 mph - N/A   Clear
2:54 AM 73.4 °F - 68.0 °F 83% 29.89 in 10.0 mi South 10.4 mph - N/A   Clear
3:14 AM 73.4 °F - 68.0 °F 83% 29.88 in 10.0 mi South 11.5 mph - N/A   Clear
3:35 AM 73.4 °F - 69.8 °F 88% 29.88 in 10.0 mi South 12.7 mph - N/A   Clear
3:54 AM 73.4 °F - 69.8 °F 88% 29.87 in 10.0 mi South 11.5 mph - N/A   Clear
4:14 AM 73.4 °F - 69.8 °F 88% 29.88 in 10.0 mi South 12.7 mph - N/A   Clear
4:35 AM 73.4 °F - 69.8 °F 88% 29.87 in 10.0 mi SSE 11.5 mph - N/A   Clear
4:54 AM 73.4 °F - 69.8 °F 88% 29.87 in 10.0 mi South 11.5 mph - N/A   Scattered Clouds
5:14 AM 73.4 °F - 69.8 °F 88% 29.87 in 10.0 mi South 11.5 mph 17.3 mph N/A   Clear
5:35 AM 73.4 °F - 69.8 °F 88% 29.86 in 10.0 mi South 12.7 mph - N/A   Clear
5:54 AM 73.4 °F - 69.8 °F 88% 29.86 in 10.0 mi SSE 12.7 mph - N/A   Clear
6:14 AM 73.4 °F - 69.8 °F 88% 29.86 in 10.0 mi South 13.8 mph - N/A   Clear
6:35 AM 73.4 °F - 69.8 °F 88% 29.86 in 10.0 mi South 12.7 mph - N/A   Clear
6:54 AM 73.4 °F - 69.8 °F 88% 29.86 in 10.0 mi South 12.7 mph - N/A   Clear
7:14 AM 73.4 °F - 69.8 °F 88% 29.86 in 10.0 mi South 13.8 mph - N/A   Scattered Clouds
7:35 AM 73.4 °F - 68.0 °F 83% 29.86 in 10.0 mi South 15.0 mph - N/A   Scattered Clouds
7:54 AM 75.2 °F - 69.8 °F 83% 29.85 in 10.0 mi South 13.8 mph - N/A   Clear
8:14 AM 75.2 °F - 69.8 °F 83% 29.85 in 10.0 mi South 15.0 mph - N/A   Clear
8:35 AM 77.0 °F - 69.8 °F 78% 29.84 in 10.0 mi South 16.1 mph 20.7 mph N/A   Clear
8:54 AM 77.0 °F - 69.8 °F 78% 29.84 in 10.0 mi South 17.3 mph 21.9 mph N/A   Clear
9:15 AM 78.8 °F - 69.8 °F 74% 29.83 in 10.0 mi South 18.4 mph 23.0 mph N/A   Clear
9:34 AM 80.6 °F 83.9 °F 69.8 °F 70% 29.82 in 10.0 mi South 18.4 mph 23.0 mph N/A   Clear
9:54 AM 80.6 °F 83.9 °F 69.8 °F 70% 29.81 in 10.0 mi South 21.9 mph 29.9 mph N/A   Clear
10:15 AM 82.4 °F 86.3 °F 69.8 °F 66% 29.81 in 10.0 mi South 21.9 mph 27.6 mph N/A   Clear
10:34 AM 82.4 °F 86.3 °F 69.8 °F 66% 29.81 in 10.0 mi SSW 21.9 mph 28.8 mph N/A   Clear
10:54 AM 84.2 °F 88.4 °F 69.8 °F 62% 29.81 in 10.0 mi South 23.0 mph 26.5 mph N/A   Clear
11:15 AM 82.4 °F 86.3 °F 69.8 °F 66% 29.81 in 10.0 mi SSW 21.9 mph 28.8 mph N/A   Clear
11:34 AM 82.4 °F 86.3 °F 69.8 °F 66% 29.80 in 10.0 mi SSW 19.6 mph - N/A   Clear
11:54 AM 84.2 °F 88.4 °F 69.8 °F 62% 29.80 in 10.0 mi South 18.4 mph 24.2 mph N/A   Clear
12:14 PM 86.0 °F 90.4 °F 69.8 °F 58% 29.80 in 10.0 mi SSW 15.0 mph 24.2 mph N/A   Clear
12:34 PM 86.0 °F 90.4 °F 69.8 °F 58% 29.79 in 10.0 mi South 20.7 mph 26.5 mph N/A   Clear
12:55 PM 86.0 °F 91.8 °F 71.6 °F 62% 29.78 in 10.0 mi South 18.4 mph 23.0 mph N/A   Clear
1:14 PM 87.8 °F 92.6 °F 69.8 °F 55% 29.78 in 10.0 mi South 21.9 mph 26.5 mph N/A   Clear
1:34 PM 89.6 °F 94.7 °F 69.8 °F 52% 29.77 in 10.0 mi South 18.4 mph 25.3 mph N/A   Clear
1:55 PM 89.6 °F 94.7 °F 69.8 °F 52% 29.78 in 10.0 mi SSW 18.4 mph 28.8 mph N/A   Clear
2:14 PM 89.6 °F 94.7 °F 69.8 °F 52% 29.77 in 10.0 mi SSW 19.6 mph 26.5 mph N/A   Clear
2:34 PM 91.4 °F 96.8 °F 69.8 °F 49% 29.76 in 10.0 mi South 18.4 mph 27.6 mph N/A   Clear
2:54 PM 91.4 °F 96.8 °F 69.8 °F 49% 29.75 in 10.0 mi South 17.3 mph 26.5 mph N/A   Clear
3:14 PM 91.4 °F 96.8 °F 69.8 °F 49% 29.75 in 10.0 mi SSW 20.7 mph 29.9 mph N/A   Clear
3:35 PM 93.2 °F 98.8 °F 69.8 °F 46% 29.74 in 10.0 mi South 18.4 mph 27.6 mph N/A   Clear
3:54 PM 93.2 °F 98.8 °F 69.8 °F 46% 29.74 in 10.0 mi SSW 19.6 mph 25.3 mph N/A   Clear
4:14 PM 91.4 °F 96.8 °F 69.8 °F 49% 29.73 in 10.0 mi SSW 13.8 mph 25.3 mph N/A   Clear
4:35 PM 91.4 °F 96.8 °F 69.8 °F 49% 29.73 in 10.0 mi SSW 17.3 mph - N/A   Clear
4:54 PM 91.4 °F 96.8 °F 69.8 °F 49% 29.73 in 10.0 mi SW 13.8 mph 19.6 mph N/A   Clear
5:15 PM 93.2 °F 98.8 °F 69.8 °F 46% 29.72 in 10.0 mi SSW 15.0 mph - N/A   Clear
5:34 PM 91.4 °F 96.8 °F 69.8 °F 49% 29.73 in 10.0 mi SSW 15.0 mph - N/A   Clear
5:54 PM 93.2 °F 98.8 °F 69.8 °F 46% 29.74 in 10.0 mi SW 15.0 mph 20.7 mph N/A   Scattered Clouds
6:15 PM 91.4 °F 95.4 °F 68.0 °F 46% 29.73 in 10.0 mi SSW 16.1 mph - N/A   Clear
6:34 PM 89.6 °F 94.7 °F 69.8 °F 52% 29.73 in 10.0 mi SW 16.1 mph 21.9 mph N/A   Clear
6:55 PM 89.6 °F 94.7 °F 69.8 °F 52% 29.72 in 10.0 mi SW 16.1 mph - N/A   Clear
7:14 PM 89.6 °F 94.7 °F 69.8 °F 52% 29.71 in 10.0 mi SSW 15.0 mph - N/A   Clear
7:34 PM 89.6 °F 94.7 °F 69.8 °F 52% 29.71 in 10.0 mi SSW 12.7 mph - N/A   Clear
7:55 PM 87.8 °F 92.6 °F 69.8 °F 55% 29.70 in 10.0 mi SSW 12.7 mph 18.4 mph N/A   Clear
8:14 PM 87.8 °F 92.6 °F 69.8 °F 55% 29.71 in 10.0 mi SSW 11.5 mph - N/A   Clear
8:34 PM 86.0 °F 90.4 °F 69.8 °F 58% 29.72 in 10.0 mi SSW 8.1 mph - N/A   Clear
8:54 PM 84.2 °F 88.4 °F 69.8 °F 62% 29.73 in 10.0 mi SSW 6.9 mph - N/A   Clear
9:14 PM 82.4 °F 87.2 °F 71.6 °F 70% 29.74 in 10.0 mi SSW 5.8 mph - N/A   Clear
9:35 PM 82.4 °F 87.2 °F 71.6 °F 70% 29.74 in 10.0 mi SSW 6.9 mph - N/A   Clear
9:54 PM 82.4 °F 87.2 °F 71.6 °F 70% 29.74 in 10.0 mi South 8.1 mph - N/A   Clear
10:14 PM 82.4 °F 87.2 °F 71.6 °F 70% 29.74 in 10.0 mi SSW 9.2 mph - N/A Thunderstorm Clear
10:35 PM 82.4 °F 87.2 °F 71.6 °F 70% 29.75 in 10.0 mi SSW 6.9 mph - N/A   Clear
10:54 PM 82.4 °F 87.2 °F 71.6 °F 70% 29.75 in 10.0 mi South 8.1 mph - N/A Thunderstorm Thunderstorm
11:14 PM 80.6 °F 84.6 °F 71.6 °F 74% 29.75 in 10.0 mi South 6.9 mph - N/A   Clear
11:35 PM 80.6 °F 84.6 °F 71.6 °F 74% 29.76 in 10.0 mi South 4.6 mph - N/A Thunderstorm Clear
11:54 PM 78.8 °F - 71.6 °F 78% 29.77 in 10.0 mi Calm Calm - N/A   Clear